GFSFLT2_700_spd_276.txt.gz
Wind_Speed
10 11 10 11 9 9 9 9 11 10 10 10 9 9 11 14 15 18 20 21 19 19 17 16 15 15 14 13 14 14 14 14
12 13 13 12 12 12 11 11 11 12 11 10 11 11 12 14 16 17 17 18 16 16 15 14 13 12 12 11 10 10 11 9
13 16 16 15 15 14 14 14 14 14 14 12 11 11 14 15 15 15 15 15 14 12 11 10 9 8 8 8 8 7 7 6
13 17 18 19 18 17 17 16 15 15 14 14 13 13 14 16 15 13 11 11 12 11 9 6 6 5 4 5 4 4 4 4
6 15 20 22 21 20 20 18 17 16 17 16 16 14 14 14 14 13 10 9 8 8 8 5 3 2 3 3 2 2 1 2
8 11 16 23 26 25 23 21 20 19 18 19 18 16 15 13 12 12 11 8 6 5 5 5 3 0 1 2 3 3 2 2
16 14 16 21 29 30 28 25 23 21 21 20 19 18 16 15 14 12 11 9 8 6 4 3 2 1 2 2 2 2 1 2
22 21 18 18 27 33 33 30 27 25 24 22 21 20 20 18 16 14 13 11 10 9 7 6 5 3 2 2 2 2 3 4
21 22 26 22 20 30 36 35 32 30 28 26 24 23 22 22 20 17 15 14 13 12 10 9 7 6 4 4 3 2 3 4
23 23 18 24 23 22 31 38 37 35 33 31 28 26 25 24 23 21 19 17 15 14 13 12 11 10 7 7 6 5 5 6
33 30 25 21 27 27 27 31 41 40 39 37 34 31 29 27 26 24 24 22 21 19 16 15 15 14 13 11 10 9 9 8
40 39 33 30 30 30 31 30 31 44 43 41 39 37 34 32 31 29 29 27 25 24 21 18 17 18 19 16 13 13 12 10
39 43 44 37 35 34 32 31 27 36 47 44 43 41 40 37 35 34 34 32 28 26 24 23 21 20 21 20 17 14 14 10
31 35 44 46 42 38 35 32 32 26 36 46 45 43 41 40 38 38 37 35 34 32 29 26 24 25 23 22 21 19 13 8
28 28 30 41 44 44 40 37 36 35 33 34 42 43 42 41 41 41 40 39 37 35 34 31 29 28 26 25 24 20 17 14
27 29 29 28 33 41 45 45 41 38 36 32 32 31 34 40 45 44 43 42 40 39 37 35 34 33 31 29 27 25 23 20
26 26 30 30 30 31 41 46 48 45 42 39 41 40 39 38 36 43 47 46 44 43 41 41 39 37 36 34 33 30 28 25
24 27 28 30 30 31 28 36 44 50 49 47 42 44 43 41 39 38 44 49 48 46 46 44 43 42 40 39 38 36 33 31
24 26 28 29 29 30 32 31 34 40 51 51 49 48 52 49 43 42 39 45 49 50 50 48 46 47 45 43 42 40 38 37
20 24 23 29 32 27 28 33 35 34 36 40 51 52 50 49 50 47 43 39 42 51 52 51 50 50 50 49 46 45 44 42

GFSFLT2_700_spd_279.txt.gz
Wind_Speed
6 6 5 7 7 6 6 6 7 7 8 7 8 10 12 14 17 17 17 17 16 16 15 14 14 14 13 12 13 12 13 12
8 9 7 6 7 8 8 8 8 8 8 8 8 12 14 16 18 17 15 14 13 12 11 11 11 10 10 10 9 9 10 9
10 10 10 9 9 9 10 10 10 10 10 10 10 11 14 16 18 17 14 13 11 11 9 8 8 7 6 6 5 6 6 6
10 13 13 13 12 11 12 12 11 11 11 11 12 13 14 15 17 17 15 12 10 9 8 7 6 5 5 4 3 3 3 3
6 11 14 16 16 15 15 14 14 14 13 14 14 14 15 15 14 14 14 13 11 8 7 6 5 4 3 3 3 3 2 1
8 7 11 16 19 19 18 17 16 15 15 16 16 15 15 15 14 13 12 11 10 8 6 5 3 2 0 1 1 2 1 1
16 14 13 15 17 22 23 21 20 18 18 18 17 17 16 16 15 14 13 10 8 7 6 4 4 3 2 2 1 1 1 2
25 24 21 17 19 21 25 26 23 23 22 21 20 19 19 18 16 15 14 13 10 8 7 7 6 5 4 3 2 2 1 3
23 27 25 24 21 21 25 29 29 28 26 25 23 22 21 21 21 19 17 15 14 12 9 8 7 6 5 5 4 3 3 3
25 27 25 29 28 25 22 29 33 32 30 29 28 27 26 25 24 23 22 20 17 14 12 10 8 7 7 8 7 6 5 5
30 30 28 27 28 32 29 26 33 36 34 33 33 32 31 30 28 26 26 25 22 20 15 13 11 10 10 10 10 9 8 7
29 34 37 36 31 31 35 34 31 38 40 39 39 37 36 35 33 31 30 29 27 25 22 19 17 15 14 13 13 13 12 10
26 30 35 40 41 37 35 39 36 33 40 42 44 42 40 39 37 36 35 33 31 29 27 26 23 21 20 17 15 14 15 12
28 25 29 35 40 45 41 39 40 38 38 39 45 47 44 42 41 40 39 38 36 35 33 30 29 27 25 22 21 17 14 11
34 29 26 28 34 41 48 44 42 41 42 38 49 46 48 46 45 44 42 41 39 38 36 35 32 31 32 29 26 20 16 15
25 31 29 29 30 33 42 48 46 44 41 42 38 47 48 49 47 46 44 43 43 41 40 38 37 36 36 36 33 28 24 20
24 23 26 29 30 33 31 37 46 49 48 44 51 42 46 49 49 48 47 46 44 45 43 42 41 40 39 38 38 36 32 28
20 25 25 27 29 31 35 34 35 40 49 51 50 44 42 35 40 43 45 46 47 48 46 47 45 44 43 41 41 39 37 35
17 21 25 28 29 28 29 36 36 34 34 40 49 46 38 51 41 36 39 42 41 41 50 51 49 48 46 44 44 42 41 40
15 15 20 24 28 29 29 29 34 36 35 36 36 39 41 38 45 47 40 42 44 43 43 51 52 52 50 49 47 46 46 44

GFSFLT2_700_spd_282.txt.gz
Wind_Speed
2 2 1 3 4 6 5 5 5 6 6 8 8 9 11 10 12 15 14 14 15 14 13 12 11 11 10 10 9 10 11 11
3 4 4 4 4 5 5 6 5 6 6 7 9 11 13 14 14 15 14 13 12 12 11 10 9 9 8 7 7 6 6 7
6 6 7 6 5 5 6 6 7 7 7 8 10 12 14 17 16 15 13 12 11 10 8 8 7 6 6 6 5 4 3 4
6 9 10 9 9 8 7 8 8 8 8 8 10 13 16 18 16 15 14 12 10 9 8 7 6 5 4 4 4 3 2 2
9 10 12 13 13 11 10 10 10 10 10 10 11 14 17 18 17 15 14 11 10 8 6 5 4 4 4 3 2 1 1 0
18 16 16 15 15 14 14 13 13 13 13 12 13 14 16 17 18 16 14 13 11 9 6 5 3 2 1 1 1 1 2 2
17 18 18 18 19 18 17 16 16 16 16 16 15 15 17 18 18 18 16 16 14 11 8 6 5 4 3 3 3 3 3 3
22 23 21 20 22 21 21 20 20 20 19 19 19 19 19 20 19 18 18 17 16 14 12 10 8 6 5 5 5 4 4 5
21 25 26 22 23 24 23 24 25 24 24 22 22 22 22 22 22 22 20 19 18 16 15 13 11 9 7 6 6 6 6 5
23 24 25 28 30 29 27 24 23 29 29 27 25 26 26 26 26 25 25 24 21 19 17 16 14 13 11 9 8 8 7 7
30 29 29 30 29 32 33 30 28 26 33 32 30 29 30 30 30 29 29 27 25 23 21 19 18 16 15 14 12 10 9 8
30 33 34 34 34 31 31 35 35 32 33 38 36 34 34 34 34 33 33 32 30 28 25 23 21 20 19 18 16 14 12 11
28 31 34 37 38 39 37 36 35 38 35 37 40 40 40 39 38 38 38 37 36 32 30 29 26 24 24 24 21 19 17 13
21 25 30 34 38 41 41 42 41 38 38 37 38 42 44 46 43 42 42 41 40 38 36 34 31 30 27 26 27 23 21 17
23 23 23 28 33 38 41 42 43 44 41 39 40 43 46 50 52 48 46 45 44 42 40 38 37 34 32 31 30 29 27 23
19 23 25 24 27 31 35 40 44 45 48 46 43 48 47 42 52 55 51 49 47 45 42 41 40 39 39 35 35 33 31 28
19 20 22 26 27 28 31 35 39 41 46 52 50 52 39 46 58 55 56 53 49 46 45 44 43 43 42 41 39 37 36 35
20 21 22 24 25 28 30 32 36 37 37 43 51 53 40 41 61 55 55 54 51 48 47 46 45 46 44 45 43 41 40 39
19 20 22 21 24 28 30 31 32 36 38 38 40 49 49 46 37 53 35 47 49 49 48 49 49 48 49 47 46 46 43 42
21 17 18 20 20 23 29 32 32 34 36 38 39 39 38 30 54 35 40 52 38 39 42 39 42 45 50 52 50 50 48 47

GFSFLT2_700_spd_285.txt.gz
Wind_Speed
3 3 3 3 3 3 4 4 5 5 5 5 7 7 10 11 12 14 14 13 12 11 11 10 10 9 8 8 8 7 8 8
0 1 2 2 3 1 1 2 2 3 4 5 6 8 9 13 14 14 14 13 12 11 9 8 8 7 7 6 6 6 5 5
2 3 3 4 5 4 3 2 2 2 3 4 6 8 10 11 14 15 13 12 10 8 7 6 6 5 5 4 3 5 3 2
5 5 6 6 7 6 6 6 4 3 4 5 6 9 11 14 13 12 13 11 10 8 6 4 4 4 3 2 0 3 1 1
10 11 10 9 11 8 9 8 7 6 6 6 7 10 12 13 14 13 11 10 9 8 6 4 3 1 1 1 0 1 1 2
14 14 14 14 14 13 12 13 10 9 8 8 9 11 14 16 15 15 13 12 11 10 8 6 4 3 2 3 3 4 4 4
18 19 19 18 17 16 17 16 16 14 12 11 12 13 15 17 18 17 16 15 14 13 12 11 9 7 5 4 4 5 4 6
20 22 23 22 21 20 20 22 19 20 18 15 14 15 17 18 20 20 19 18 17 16 15 13 12 10 8 6 5 5 6 7
23 22 23 24 25 23 23 25 26 25 22 21 19 18 20 20 22 22 22 22 21 19 17 15 14 12 11 9 8 7 7 7
26 26 26 25 27 26 24 24 25 26 28 26 26 24 23 23 24 25 25 25 24 22 20 19 17 17 15 13 11 10 9 8
31 32 31 30 28 28 30 28 29 30 28 29 32 31 30 28 27 28 29 29 28 26 25 23 21 20 19 18 17 15 13 13
33 37 36 37 35 32 32 31 32 35 34 37 37 37 36 34 32 31 32 32 33 31 29 27 25 23 22 22 21 19 18 17
22 27 37 40 40 39 37 37 37 35 37 44 46 41 33 39 37 36 35 36 36 36 34 31 31 27 27 25 24 23 22 21
18 19 24 32 40 40 41 40 39 41 42 42 41 40 37 44 44 42 40 40 40 39 39 36 34 33 32 30 28 27 26 22
18 19 18 22 28 35 37 39 41 43 43 46 46 43 48 39 46 47 46 44 45 44 42 42 39 37 36 34 32 31 24 24
17 18 19 19 20 29 29 35 37 39 42 43 47 51 54 44 40 45 45 51 50 49 47 46 44 40 40 39 36 33 28 17
18 18 21 22 21 21 28 31 32 35 37 39 42 49 54 55 32 40 43 53 50 54 50 50 48 45 42 42 42 36 35 37
24 24 22 22 25 25 22 28 32 33 36 37 39 40 45 48 50 46 47 44 46 39 54 54 51 49 48 45 44 44 39 39
25 26 24 23 24 25 26 24 27 32 35 37 37 39 39 39 42 46 47 44 42 62 44 58 51 54 51 49 47 46 45 43
24 25 22 23 23 24 24 25 25 26 32 36 37 37 38 37 38 38 36 38 41 61 65 37 44 57 51 50 48 48 46 47

GFSFLT2_700_spd_288.txt.gz
Wind_Speed
6 6 7 8 8 7 6 6 6 6 5 5 6 5 8 10 13 14 14 12 12 12 11 11 10 9 8 7 6 6 6 6
4 4 5 6 6 6 5 5 5 4 3 2 4 6 6 10 13 14 13 12 11 10 10 10 9 8 7 5 3 4 4 3
4 6 3 2 4 4 4 3 3 3 2 1 1 5 8 8 12 12 13 11 10 10 9 8 8 6 5 3 2 2 1 3
4 5 5 3 4 3 3 3 3 2 2 3 2 4 7 11 12 11 10 10 9 8 8 7 6 5 3 2 2 3 3 3
7 7 7 6 7 6 5 4 2 4 4 5 5 6 7 10 11 11 11 10 8 8 7 7 6 6 4 2 2 1 5 1
12 12 11 10 12 11 11 7 9 6 6 7 8 7 9 11 13 13 12 12 11 10 9 7 7 4 4 3 2 4 6 2
18 19 18 16 15 15 15 12 12 13 15 9 11 11 12 14 16 16 15 15 13 13 12 11 8 7 6 5 5 5 6 4
20 21 21 22 22 20 18 18 16 15 16 19 12 14 15 15 18 19 19 18 17 16 15 13 12 11 10 9 8 6 6 8
24 25 23 23 23 22 22 19 22 21 20 25 24 19 18 19 20 22 23 22 21 20 18 17 14 13 12 12 11 9 8 9
28 30 29 29 27 26 24 23 26 25 27 27 27 27 25 25 24 24 25 26 26 24 22 20 18 16 15 13 12 12 11 10
30 33 33 34 33 30 28 27 28 26 28 29 31 34 32 30 30 27 28 29 29 29 27 25 23 21 19 16 17 16 15 13
21 29 32 37 37 37 35 32 31 32 34 35 35 42 38 36 30 32 30 33 33 32 31 29 27 25 23 22 20 18 18 18
18 21 22 27 34 41 41 37 36 36 38 37 39 42 39 31 26 29 36 37 36 34 34 34 31 29 28 26 25 22 20 19
19 20 21 21 22 30 36 42 40 41 42 39 41 42 42 41 36 45 34 38 39 39 36 38 36 34 32 30 30 27 27 23
19 21 20 18 19 20 25 33 37 40 42 43 38 42 43 43 40 37 48 33 35 41 41 41 39 38 37 35 34 33 28 28
18 21 23 18 18 20 22 23 31 36 38 41 36 37 42 44 45 31 33 52 37 42 40 45 44 42 41 41 39 36 34 30
18 21 23 22 20 21 22 23 23 28 36 37 37 32 34 42 42 40 43 41 39 49 50 42 46 48 44 43 43 41 37 37
26 19 20 21 22 23 24 25 26 26 28 35 37 35 30 36 36 36 41 41 42 40 52 41 52 58 48 46 45 47 45 41
29 17 18 22 23 24 25 25 27 28 29 28 33 35 32 31 32 30 34 37 39 42 41 45 57 60 41 43 46 47 49 48
24 17 17 22 25 24 25 25 26 28 29 28 28 27 29 32 31 29 28 33 33 33 33 40 45 52 52 33 48 50 52 50

GFSFLT2_700_spd_294.txt.gz
Wind_Speed
7 9 8 9 11 9 9 9 8 8 8 7 6 6 5 5 8 10 11 11 10 9 8 7 6 5 5 6 7 4 4 5
5 5 5 4 4 5 7 8 8 7 7 7 6 4 4 5 6 7 8 8 8 7 6 5 4 4 3 2 5 2 2 0
2 1 1 2 2 1 1 1 4 5 5 5 4 3 1 4 6 5 5 6 6 5 4 3 3 2 2 1 1 1 3 3
4 6 3 4 5 2 1 2 3 1 2 4 2 1 1 3 6 6 6 5 4 4 3 3 4 4 4 6 3 3 4 5
6 6 4 10 7 5 5 3 5 7 4 3 3 2 2 4 8 7 8 8 7 6 6 6 7 7 8 11 8 3 3 6
11 12 12 11 13 11 11 9 8 9 8 8 7 7 6 7 11 11 11 11 11 10 9 9 9 9 8 13 15 9 8 7
12 13 14 15 16 16 16 18 14 14 13 11 11 11 11 12 12 13 15 14 14 14 13 12 12 12 11 11 15 13 11 11
15 16 16 16 16 16 16 18 20 19 18 17 16 16 15 16 15 15 16 18 17 18 17 17 16 16 15 13 14 14 13 12
17 19 20 21 20 21 23 22 22 21 24 24 23 21 20 20 19 18 20 21 22 21 21 22 20 20 18 15 14 16 15 13
20 22 24 24 24 25 27 27 27 27 25 29 29 29 28 26 25 24 23 24 25 27 25 24 22 21 18 18 17 17 16 13
14 15 15 18 22 25 29 30 31 30 29 28 31 34 35 34 33 29 31 27 27 28 28 27 25 25 25 23 22 23 21 19
16 17 16 15 16 18 21 22 27 31 33 33 33 34 34 36 38 38 35 33 35 25 28 30 28 29 28 26 27 25 26 25
19 16 16 19 18 16 16 18 20 22 25 32 35 36 38 37 37 36 38 38 35 35 31 44 32 30 32 32 29 28 30 29
19 22 20 19 18 19 19 18 20 21 22 23 24 28 35 39 42 41 38 35 40 32 32 34 42 34 35 34 36 36 32 31
25 25 23 21 17 15 16 18 17 17 19 22 23 24 24 26 32 37 39 38 36 32 29 33 42 44 42 40 38 41 41 32
25 28 27 19 16 16 19 20 19 20 20 20 22 23 23 24 25 25 27 28 27 29 32 38 46 48 44 44 50 45 49 45
22 24 23 19 18 18 18 18 20 21 20 20 19 21 22 21 22 23 23 22 27 27 32 36 44 38 48 51 49 50 50 49
19 20 20 19 18 19 20 20 21 23 25 25 24 24 24 22 21 21 20 21 24 29 29 31 37 40 46 39 51 44 47 49
19 20 19 19 19 19 20 21 23 23 25 26 27 25 25 24 22 21 21 19 21 25 27 27 33 35 38 41 40 40 45 54
18 19 18 19 20 20 21 22 24 25 26 26 27 27 26 25 24 23 22 22 20 20 27 28 30 32 33 37 40 45 45 40

GFSFLT2_700_spd_297.txt.gz
Wind_Speed
5 6 5 3 3 4 5 6 6 7 8 7 6 6 6 5 6 6 5 5 5 3 3 3 4 5 6 6 5 5 4 4
4 2 2 2 1 1 2 2 2 5 6 7 6 4 4 5 6 5 5 3 2 1 1 2 2 1 2 3 3 3 3 3
4 3 3 2 2 2 1 1 2 1 2 5 5 5 4 3 5 5 3 3 2 1 2 3 3 5 5 4 5 4 3 4
4 5 2 5 7 6 4 5 3 3 4 4 6 6 7 6 6 7 6 5 5 4 4 5 6 6 7 9 6 7 7 6
8 9 5 6 10 8 7 7 8 8 6 6 6 7 10 11 11 10 9 9 8 8 7 7 7 7 8 7 7 8 7 8
14 12 14 15 16 15 13 12 11 11 13 9 9 10 10 11 13 14 14 13 12 11 11 10 10 9 10 11 9 8 7 8
13 14 14 15 15 17 17 18 17 15 16 17 15 13 14 14 14 16 17 17 16 15 14 13 12 13 13 13 11 10 8 7
16 17 18 20 19 19 18 18 18 18 20 19 19 19 19 17 17 18 20 21 21 21 20 19 17 17 16 16 16 14 13 8
17 18 19 21 22 23 23 22 21 20 21 22 22 27 23 23 22 21 21 23 24 24 25 24 23 22 20 19 19 16 15 12
12 14 16 18 21 24 26 27 26 25 25 25 26 27 29 30 28 27 28 24 27 26 28 28 28 27 24 21 19 18 17 14
15 15 16 17 18 18 18 20 23 26 28 29 30 29 29 29 36 34 31 31 31 35 32 33 31 29 28 27 24 21 21 20
17 17 18 19 19 20 20 21 21 20 19 22 28 31 31 32 31 30 31 33 36 37 37 35 22 22 26 27 29 27 26 25
18 17 17 16 17 17 18 18 19 20 19 19 19 20 25 31 35 35 33 32 34 37 40 34 39 28 40 37 31 32 30 29
23 22 22 20 16 14 15 16 19 20 20 21 23 22 22 22 22 25 31 33 34 34 34 33 33 29 36 43 35 33 33 31
22 21 20 21 20 17 14 14 15 16 18 19 19 20 20 22 23 23 22 22 24 28 31 32 32 35 43 45 40 45 38 35
24 23 22 20 18 17 17 16 15 15 16 17 18 18 18 18 18 18 20 21 20 22 25 28 34 34 38 41 47 46 56 42
22 22 22 21 20 20 20 20 19 19 19 20 21 23 24 22 23 23 21 20 19 18 21 27 29 34 39 41 40 46 53 55
19 19 20 21 21 21 21 20 20 19 19 19 21 22 24 24 23 22 23 22 23 22 21 22 29 31 35 40 44 46 41 39
18 18 18 18 20 21 21 22 23 23 23 22 22 23 24 25 24 24 23 22 23 23 23 23 23 29 34 35 38 36 35 44
18 17 16 17 18 20 21 21 22 24 24 24 25 25 26 26 26 26 26 25 23 25 25 24 25 26 30 36 36 39 47 40

GFSFLT2_700_spd_300.txt.gz
Wind_Speed
1 1 2 3 3 3 4 4 3 5 6 7 7 6 6 5 5 5 5 4 5 5 5 5 5 5 4 3 3 3 4 4
3 2 2 2 3 2 3 3 3 3 1 5 6 7 6 5 4 3 4 4 2 2 3 3 3 3 3 3 3 3 3 3
6 3 3 4 5 5 4 3 3 4 4 2 3 6 8 9 8 6 4 3 2 2 0 2 3 2 2 4 5 6 7 6
4 3 4 9 8 7 7 6 6 5 5 5 5 5 7 10 10 9 9 7 6 5 4 4 4 4 3 2 3 4 5 6
10 9 9 9 7 9 9 8 9 9 8 8 7 8 9 10 12 12 12 11 10 9 8 7 7 6 6 4 3 2 3 4
14 14 13 12 17 16 15 19 12 14 13 12 12 11 11 13 14 15 15 15 15 14 13 11 10 10 9 8 6 5 5 5
17 17 17 16 16 16 15 16 15 16 16 17 17 18 16 15 17 18 19 19 19 19 18 18 16 15 14 12 10 7 6 8
19 21 22 22 21 20 20 19 19 19 19 19 22 18 21 20 18 19 21 21 23 23 23 22 21 20 18 17 15 11 10 9
13 15 18 20 22 23 23 23 23 23 23 23 23 23 24 23 24 24 20 22 24 26 28 26 26 24 23 21 20 18 15 13
14 14 15 15 16 17 18 19 21 23 24 26 26 27 27 28 27 29 28 27 26 29 30 28 28 28 27 25 24 22 20 17
16 17 18 18 17 17 17 17 17 18 18 19 22 27 29 29 29 30 30 32 33 33 29 26 28 33 31 29 29 27 24 24
17 17 18 19 19 19 18 18 18 18 16 16 16 17 19 21 26 30 31 31 32 32 30 32 34 35 34 27 22 27 29 27
19 18 17 16 14 15 16 16 16 17 17 17 17 17 17 18 18 19 21 27 33 35 33 31 27 37 40 31 31 29 33 28
21 21 21 19 16 13 12 14 16 17 16 17 17 16 14 14 15 16 16 18 20 21 24 28 30 29 29 29 32 37 32 30
19 19 18 18 18 19 18 16 14 14 15 14 13 12 13 13 14 14 15 15 16 17 17 19 23 27 28 32 38 37 36 36
19 19 18 18 16 15 14 14 15 14 13 14 15 15 14 15 15 16 17 18 17 17 17 17 18 21 26 34 21 31 35 46
18 18 18 18 18 17 16 16 17 18 19 18 18 18 17 17 16 16 16 18 18 19 19 18 18 20 22 29 35 35 33 50
16 15 15 17 19 19 19 19 18 17 17 19 19 20 21 22 21 20 19 19 19 19 21 21 22 21 20 24 28 34 42 41
15 14 15 15 17 19 20 20 20 20 19 19 20 21 21 22 23 23 23 21 20 20 19 20 22 25 25 25 27 30 35 40
18 17 17 17 16 17 19 21 22 22 22 22 22 23 25 24 24 25 25 25 24 23 22 22 22 23 25 28 29 31 32 35

GFSFLT2_700_spd_306.txt.gz
Wind_Speed
7 7 7 8 8 8 7 7 7 6 6 5 4 2 1 1 2 4 5 6 7 7 6 6 5 4 3 2 2 2 3 2
6 6 7 6 7 8 7 6 6 6 6 7 7 7 5 4 4 4 4 5 5 6 6 6 4 3 3 2 1 0 1 1
7 7 8 6 9 8 8 6 7 6 6 6 5 7 8 9 8 7 7 7 6 6 6 6 6 5 4 3 3 2 1 2
8 8 11 11 9 9 11 10 7 7 7 8 9 8 8 9 11 12 11 11 10 9 9 8 8 8 7 7 6 4 4 4
11 13 12 11 13 13 14 15 16 17 13 11 12 11 10 11 12 14 16 15 15 14 13 13 12 11 11 10 8 7 7 7
12 12 13 13 14 14 15 15 16 15 15 12 16 15 12 14 14 15 16 18 19 19 18 17 16 15 15 13 12 12 11 10
13 13 13 14 14 15 17 18 18 18 18 17 18 18 17 17 19 19 19 19 19 21 23 22 21 21 19 18 16 15 14 13
7 8 9 9 11 11 12 13 15 17 19 21 22 22 21 21 23 21 20 20 21 23 25 25 25 25 25 22 20 19 18 17
8 8 9 9 10 10 11 11 12 13 15 16 18 20 23 25 25 25 23 24 25 25 23 25 26 28 25 29 26 24 22 22
9 9 9 9 9 10 10 11 12 12 12 14 15 16 17 18 21 24 26 27 27 27 28 30 31 26 24 32 32 27 32 28
10 11 12 12 11 11 10 10 11 12 13 12 12 13 14 15 17 17 18 21 25 28 29 30 31 27 30 28 29 26 28 32
11 11 11 12 12 12 12 13 13 12 12 13 13 13 13 13 14 14 14 15 17 19 21 25 29 30 28 27 31 31 35 33
12 12 12 13 14 14 13 11 10 10 11 11 12 11 11 12 13 12 11 11 12 13 15 17 20 22 24 29 29 27 29 33
12 12 12 13 13 14 15 16 13 10 10 10 10 11 12 11 11 11 12 13 12 12 12 13 14 15 16 17 19 18 25 27
12 12 12 12 13 15 17 18 18 17 14 12 11 9 8 9 9 10 9 9 10 10 11 12 13 14 14 13 11 14 23 25
14 14 14 13 12 12 14 16 16 17 15 14 13 13 12 10 10 10 10 10 10 10 10 11 11 12 14 15 15 15 13 21
15 16 15 15 15 14 14 15 15 15 16 16 16 16 16 16 15 12 11 11 12 12 12 12 12 12 11 13 16 19 21 21
15 17 18 18 18 17 15 15 17 16 16 16 16 17 17 18 18 18 17 16 15 15 15 15 15 16 16 15 15 16 18 21
15 15 16 16 17 18 18 17 17 18 19 19 19 20 21 20 20 20 21 20 19 18 18 18 17 18 18 18 19 20 20 21
15 15 15 15 15 16 17 18 20 20 21 22 23 23 23 24 24 23 23 23 22 22 22 21 22 21 21 22 21 23 24 24

GFSFLT2_700_spd_312.txt.gz
Wind_Speed
6 6 8 8 9 10 10 10 9 9 9 7 5 4 4 4 3 2 2 4 4 5 5 5 4 4 3 3 3 4 4 2
7 7 6 7 8 10 9 9 9 10 9 8 9 9 8 3 4 5 5 4 5 6 7 8 8 7 6 5 6 6 5 2
10 9 10 10 11 12 11 11 9 10 11 12 12 11 10 10 8 7 7 7 8 7 8 9 9 9 9 8 9 9 8 5
11 11 12 13 13 12 13 14 15 13 13 15 15 13 15 13 12 12 11 11 12 12 11 11 13 13 13 10 12 14 8 9
13 13 14 16 16 16 17 16 17 16 16 15 15 15 14 17 15 15 14 13 13 15 13 16 14 16 15 15 14 14 9 9
12 12 12 12 13 13 15 14 15 14 14 16 18 16 18 19 21 20 18 17 16 17 19 16 17 18 16 17 17 16 15 14
11 11 12 13 13 13 14 15 16 17 17 16 17 17 19 21 22 23 20 20 20 19 19 21 21 22 20 20 21 20 18 18
13 13 13 13 14 14 14 15 16 16 16 16 17 18 18 20 20 22 23 24 27 26 25 23 21 22 25 20 15 23 20 22
15 15 15 15 14 13 13 14 14 14 15 16 16 17 18 19 19 21 22 24 25 27 27 26 27 25 26 26 28 26 23 21
13 14 14 14 14 14 13 14 14 13 13 13 14 15 17 18 19 20 20 21 22 24 24 25 27 29 30 30 31 29 27 26
12 12 12 12 12 12 12 12 12 12 13 14 14 15 17 19 19 18 18 19 20 21 21 22 24 23 25 29 32 33 31 27
13 13 12 11 11 11 12 12 12 12 12 12 13 14 16 17 18 18 17 16 17 19 19 20 21 19 20 20 21 23 25 26
16 15 15 14 13 12 13 13 13 12 11 12 13 15 15 17 18 18 18 18 17 17 17 17 19 19 17 13 15 15 19 19
15 15 15 16 15 14 14 14 14 15 15 15 14 14 16 16 17 18 19 19 18 18 17 17 19 18 16 15 10 12 11 11
15 14 14 14 15 15 16 16 18 17 17 17 16 16 16 17 18 18 20 20 21 19 19 19 18 19 20 16 12 10 14 19
15 16 17 16 16 15 15 16 17 19 18 19 19 18 18 18 19 19 20 21 21 22 23 22 21 21 20 19 18 16 15 17
17 17 17 17 17 16 16 16 17 18 19 20 21 22 23 21 21 22 23 23 24 23 23 22 24 25 24 23 22 21 22 22
16 16 17 18 19 19 20 20 19 19 20 21 22 23 25 28 26 25 26 27 27 27 27 27 26 24 25 26 27 27 25 26
16 17 17 20 22 24 25 24 23 23 22 24 25 27 28 30 32 32 28 28 30 31 31 31 31 31 30 29 28 28 30 31
16 15 15 17 20 22 23 24 24 24 26 27 29 31 32 34 36 37 38 37 35 33 34 33 33 35 34 33 34 32 32 33